Theta_e
316 318 319 319 320 320 319 318 318 319 318 319 319 318 318 317 318 319 318 314 314 316 317 319 319 318 319 317 313 311 311 311 312 311 310 310 308 308 307 307 306 305 304 303 302 302 302 302 302 302 302 303 304 305 306 308 310 310 310 309 308 308 308 308 308 308 307 307 307 305 304 303 302 303 304 304 304 304 304 304 304 304 305 306 306 306
316 319 320 320 320 319 319 319 318 318 318 318 318 317 318 318 318 319 317 314 314 316 317 319 319 318 319 318 314 311 311 312 312 311 311 310 309 308 307 307 306 305 304 303 303 302 302 303 302 302 302 302 303 304 306 308 309 309 309 309 308 307 307 307 307 307 306 305 304 303 303 301 300 300 301 300 300 300 301 301 301 301 301 302 302 303
317 319 319 320 319 318 317 318 317 317 317 318 317 318 318 319 320 319 317 314 314 315 318 319 318 318 318 317 313 312 312 312 311 311 310 309 308 307 307 306 306 304 304 303 303 302 302 302 302 302 302 302 302 303 304 305 306 306 306 307 307 307 307 306 306 307 307 304 303 304 303 301 299 298 298 298 297 298 299 299 299 299 299 299 299 300
320 319 319 319 318 317 317 316 316 316 317 318 318 318 319 320 321 320 317 315 314 315 317 318 317 318 318 316 313 312 312 311 309 308 308 308 308 307 306 306 305 305 304 303 302 302 302 302 302 302 302 301 302 302 302 303 304 304 304 305 305 306 307 308 307 307 307 305 304 302 300 299 298 296 296 296 296 297 297 297 297 297 297 297 297 297
322 319 318 318 317 317 317 316 316 317 317 318 319 319 320 320 321 321 319 316 315 315 315 316 319 320 320 318 315 311 309 308 307 306 306 306 306 306 305 304 304 304 304 303 302 302 302 302 302 301 301 301 301 301 301 302 302 303 303 303 303 304 305 306 306 305 304 303 301 299 298 297 296 295 295 294 294 293 293 293 293 292 293 293 292 292
321 317 317 318 317 317 318 317 317 318 318 320 320 320 320 320 321 322 320 318 319 320 317 317 322 322 320 321 318 311 308 308 307 306 306 306 305 304 304 304 303 303 302 302 302 302 302 302 301 301 301 301 300 300 300 300 301 302 302 302 302 301 301 301 301 301 300 300 299 298 297 296 295 294 293 292 292 291 290 289 289 289 289 289 288 288
319 316 317 319 318 319 319 319 319 319 319 321 322 320 320 320 321 322 321 320 321 323 318 316 322 323 319 319 318 313 310 310 308 307 307 306 305 304 304 304 303 302 301 301 301 301 301 301 301 301 300 300 299 298 298 299 300 300 300 300 300 300 299 299 298 298 298 298 297 297 296 295 294 293 292 291 291 290 289 288 287 287 287 287 287 287
318 316 318 320 320 320 320 320 321 319 320 323 321 320 320 320 321 321 321 321 321 321 318 315 319 322 319 318 317 314 313 312 309 308 308 307 306 305 304 304 303 302 302 301 301 301 301 301 301 300 298 298 297 297 297 298 298 299 299 299 299 299 298 298 297 297 297 296 295 294 294 293 292 292 291 291 290 290 290 289 288 287 287 287 287 287
319 318 320 320 320 321 321 321 321 320 321 322 318 318 319 319 320 320 320 320 319 321 321 318 318 320 319 318 316 314 315 315 313 310 309 308 306 305 304 304 303 302 301 301 301 300 300 299 299 298 297 296 296 296 297 297 297 298 298 299 298 298 297 296 296 296 296 295 294 293 292 292 292 291 291 291 290 290 290 290 289 288 287 286 286 286
317 315 317 319 320 321 319 318 319 321 321 318 316 317 318 318 319 319 319 320 319 320 322 320 319 319 319 317 317 316 316 317 316 312 310 309 307 305 304 304 302 301 301 301 301 300 299 298 297 296 296 295 295 295 295 296 296 297 297 297 296 296 295 295 296 295 294 293 293 292 292 292 292 291 291 291 291 291 290 290 289 289 288 287 286 286
313 310 313 317 319 318 316 313 313 317 317 316 317 318 318 318 317 318 318 318 320 322 321 320 319 320 320 317 317 319 317 317 318 313 311 310 307 305 305 303 302 301 300 299 300 299 298 296 295 295 295 295 294 294 295 295 295 295 295 295 295 295 294 294 295 295 294 293 292 292 292 292 292 292 292 292 291 291 291 290 290 289 288 287 286 286
315 313 315 315 314 315 315 314 312 312 314 317 319 319 320 320 318 319 319 318 322 325 321 318 318 320 320 317 317 319 316 316 317 314 312 310 307 306 305 303 302 301 300 299 299 298 297 296 295 295 295 294 294 294 294 295 295 294 294 294 294 294 294 294 294 293 292 292 292 292 292 292 292 292 292 292 291 291 291 290 290 289 289 288 287 286
318 317 316 315 312 313 318 317 314 312 314 317 319 319 322 324 322 324 324 321 324 324 316 314 318 321 320 317 316 317 315 314 314 313 312 309 307 306 304 303 301 301 300 299 298 298 297 296 295 295 294 294 294 294 294 294 294 294 294 294 294 293 293 292 292 292 291 291 292 291 292 291 291 291 291 291 291 290 290 290 290 289 289 288 286 286
322 320 317 316 313 313 317 319 317 315 314 316 320 321 324 327 326 327 327 324 325 320 312 312 316 318 318 317 317 315 312 311 311 310 311 309 307 306 304 302 301 300 300 299 298 297 297 297 296 295 294 294 294 294 294 294 294 294 294 293 293 292 292 291 291 291 291 291 291 290 290 290 290 290 290 290 290 290 290 289 289 289 288 287 286 286
325 325 320 318 317 314 316 319 320 318 315 316 319 320 323 326 327 327 326 325 324 317 311 312 315 318 318 315 313 310 307 307 307 307 309 309 307 306 304 302 301 300 300 299 298 298 297 297 296 295 294 294 294 293 293 294 294 294 293 293 292 292 292 291 291 291 290 290 290 290 290 289 289 289 289 289 289 289 289 288 288 288 287 287 286 286
326 327 320 317 316 315 316 318 318 318 318 317 317 320 322 323 322 321 320 319 319 317 313 312 315 316 315 311 308 306 305 305 305 305 307 308 307 305 303 302 301 300 299 299 298 297 297 296 295 295 294 294 293 293 293 293 294 294 293 292 292 292 292 291 291 290 290 289 289 289 289 289 289 289 289 289 288 288 288 288 287 287 287 286 286 286
326 324 317 314 314 313 314 317 317 319 320 318 318 320 319 318 318 317 317 315 315 319 319 314 315 315 314 312 308 307 307 306 305 305 306 307 306 305 304 302 302 301 300 299 298 298 297 296 295 294 294 293 293 293 293 293 293 293 293 292 292 292 292 291 290 290 289 289 289 289 289 289 289 289 289 289 288 288 288 288 287 287 287 287 286 286
325 323 316 314 317 312 309 312 315 315 317 317 318 319 317 316 316 316 319 319 317 320 320 317 317 317 316 316 312 308 309 308 307 306 305 306 306 305 304 303 302 301 300 299 298 298 297 296 295 294 294 293 293 293 293 293 293 293 292 292 292 291 291 290 290 289 289 289 289 289 289 289 289 289 289 289 288 288 288 288 287 287 287 287 286 286
323 324 317 313 315 312 308 312 315 313 313 314 316 317 317 319 320 318 319 321 321 322 321 319 318 317 318 318 313 312 312 310 308 306 306 306 305 305 305 304 302 302 301 299 298 298 297 296 295 294 293 293 293 293 292 293 293 293 292 292 292 291 291 290 289 289 290 289 289 290 289 289 289 289 289 289 288 288 288 287 287 287 286 286 286 286
320 324 320 312 312 312 310 313 317 315 313 312 313 315 316 318 320 320 319 319 321 322 322 321 319 318 319 317 314 314 314 312 309 307 306 307 306 306 306 305 303 302 301 300 299 298 297 296 295 294 293 293 292 292 292 292 292 292 292 292 291 291 290 290 290 290 290 290 289 289 289 289 289 289 289 289 288 288 287 287 286 286 286 286 285 285
318 321 322 314 310 313 314 315 317 318 315 313 313 315 316 315 315 317 318 317 318 320 322 323 322 319 317 316 315 315 314 313 310 308 308 308 307 306 306 305 304 302 302 301 299 298 297 296 295 294 293 292 292 292 292 292 292 292 292 292 291 291 290 290 290 290 290 289 289 289 289 289 289 289 289 288 288 287 287 286 286 286 286 286 285 285
319 319 320 316 312 315 317 314 314 315 316 315 314 315 317 316 316 318 320 318 316 318 320 320 322 320 315 313 314 314 314 314 312 310 309 308 308 307 306 306 304 303 302 301 300 299 298 296 295 294 293 292 292 292 291 291 292 292 292 292 291 291 290 290 290 290 289 289 289 289 289 289 288 288 288 288 287 287 286 286 286 286 286 285 285 284
318 317 319 318 315 315 314 311 309 310 312 314 315 315 316 316 316 319 321 319 315 316 316 316 319 319 313 310 310 310 312 312 312 312 311 310 309 308 307 306 305 304 303 302 300 299 298 296 295 294 293 292 291 291 291 291 291 291 291 291 291 291 291 290 290 289 289 289 289 289 289 288 288 288 288 288 287 286 286 286 286 286 285 284 284 284
317 318 319 319 317 314 312 310 309 308 310 313 315 315 316 317 317 318 318 317 317 317 316 316 319 318 311 308 308 307 307 308 309 311 312 311 309 308 307 306 305 304 303 301 300 299 297 296 295 294 293 292 291 291 291 291 291 291 291 291 291 291 290 290 290 289 289 289 289 288 288 288 288 288 287 287 287 286 286 286 285 285 284 284 284 284
318 319 320 320 320 318 316 314 313 311 310 313 314 315 316 317 318 317 314 314 317 320 319 319 321 318 310 307 307 306 306 306 306 307 309 310 309 308 307 306 306 305 303 301 299 298 297 296 295 294 293 292 292 291 291 291 291 291 291 291 291 290 290 289 289 289 289 288 288 288 288 288 288 287 287 287 286 286 286 285 285 284 284 284 284 284
318 319 320 321 323 324 322 320 318 315 312 312 314 315 316 317 317 316 315 316 318 321 321 319 320 316 310 308 308 307 306 307 306 306 306 307 308 307 306 306 305 304 302 300 299 298 297 296 295 294 293 292 292 291 291 291 291 291 291 291 290 290 290 289 289 289 288 288 288 288 287 287 287 286 286 287 286 285 285 285 284 284 284 284 284 284
316 319 319 321 323 322 319 316 316 316 314 313 314 314 315 316 316 315 316 318 318 318 319 318 318 316 311 309 310 309 308 308 308 307 305 305 306 306 306 305 304 303 302 300 299 298 297 296 296 295 294 293 292 291 291 291 291 291 291 290 290 290 289 289 288 288 288 288 288 287 287 286 286 286 286 286 286 285 285 284 284 284 284 284 283 283
316 318 319 320 321 318 314 312 312 315 316 315 315 314 314 315 316 316 317 318 318 317 318 317 317 317 314 310 311 311 309 308 310 309 306 305 305 305 305 304 303 303 302 301 300 298 297 297 296 296 294 293 292 291 291 291 291 291 290 290 290 289 289 289 288 288 288 288 287 287 286 285 285 285 286 286 286 285 285 284 284 284 283 283 283 283
315 317 318 319 319 317 314 312 313 314 314 315 315 315 314 314 315 316 316 317 318 318 318 317 317 317 315 312 312 312 309 308 309 309 307 306 305 305 304 303 303 302 302 301 300 299 298 298 297 296 295 294 292 292 291 291 291 290 290 290 289 289 289 289 288 288 287 287 286 286 285 285 285 286 286 286 286 285 285 284 284 284 283 283 282 282
315 316 317 316 317 317 314 313 314 314 313 313 314 314 314 313 314 314 314 315 317 317 317 317 317 317 314 313 312 312 311 310 309 307 306 306 306 304 304 303 302 302 302 301 300 300 299 298 298 297 296 294 293 291 291 291 290 290 290 290 289 289 289 288 288 287 287 286 286 285 285 285 286 286 286 286 286 285 285 285 284 283 283 282 282 282
314 315 314 313 316 317 313 311 312 313 314 314 314 314 313 313 313 312 313 314 315 316 315 315 316 316 314 312 312 311 311 310 308 307 306 306 306 304 304 304 303 303 302 301 301 300 299 299 298 297 296 295 293 292 291 291 290 290 290 289 289 288 288 288 288 287 287 286 286 286 285 286 286 286 286 286 286 285 285 284 283 282 282 281 281 282
311 313 312 313 318 318 311 309 310 310 311 313 314 313 313 313 313 312 313 313 314 315 315 314 316 315 313 312 311 309 309 308 308 307 307 306 306 305 304 305 304 304 303 302 301 301 300 299 298 298 296 295 294 292 292 291 290 290 289 289 289 288 288 288 287 287 287 286 286 286 285 286 286 286 286 286 286 285 285 284 283 282 281 281 281 281
310 312 312 314 318 315 308 307 310 310 312 314 314 314 313 312 312 312 312 313 313 313 314 315 316 314 312 311 310 308 308 309 309 308 307 307 307 306 305 305 305 305 304 303 302 301 301 300 299 298 296 295 294 293 292 291 290 290 289 289 288 288 288 287 287 287 287 286 286 285 285 286 286 286 286 286 286 285 284 284 282 282 281 281 281 281
310 312 312 314 316 311 306 307 311 313 315 315 314 314 312 311 311 311 311 311 312 312 313 315 315 313 312 311 310 309 308 309 309 308 308 308 307 306 305 305 305 304 303 303 302 301 300 300 299 298 296 295 294 293 292 291 291 290 289 289 288 288 287 287 287 287 287 286 285 285 286 286 286 286 286 286 286 285 284 283 283 282 281 280 281 281
310 311 311 312 312 308 306 309 313 315 314 310 308 309 309 310 311 311 311 311 312 312 312 312 312 311 310 309 309 309 308 306 305 306 305 305 305 306 305 303 303 302 302 302 301 301 300 300 298 297 297 295 295 294 293 292 291 290 289 288 288 288 287 287 287 287 286 286 285 286 287 287 286 286 286 286 285 284 284 283 283 282 281 280 281 281
310 311 311 311 309 307 308 311 314 314 311 308 304 302 304 307 309 311 312 312 311 311 310 310 310 309 309 308 307 306 303 301 301 302 300 300 301 302 302 301 301 301 301 301 300 300 299 299 298 298 297 296 295 294 293 292 291 290 289 288 288 287 287 287 287 286 286 286 286 287 287 287 286 286 286 285 284 284 283 283 283 281 280 280 281 281
309 311 311 310 310 308 309 311 312 311 311 310 306 302 303 306 307 309 311 310 309 310 309 309 309 309 309 308 304 301 299 299 301 302 300 299 299 299 299 299 300 299 299 299 298 298 298 298 298 297 297 296 295 293 293 292 291 290 289 288 288 287 287 286 286 286 286 286 287 287 287 286 286 286 286 285 284 283 284 283 282 281 280 280 281 281
305 309 310 312 311 309 309 310 311 311 312 311 308 304 304 306 306 307 309 308 308 310 310 309 309 308 308 306 301 298 299 301 303 303 302 300 299 298 298 297 297 297 296 296 296 296 295 295 295 295 295 295 294 293 292 292 291 290 288 288 287 287 286 286 286 286 286 286 287 287 287 286 286 286 285 284 284 284 284 283 281 281 281 281 280 280
303 305 307 310 312 311 310 311 311 311 312 310 306 302 301 304 305 305 306 307 308 310 309 309 308 307 307 304 299 299 302 304 304 303 301 300 298 297 297 296 295 294 294 294 293 293 293 292 292 293 293 293 293 292 292 291 291 290 288 288 287 287 286 286 286 286 286 287 287 287 287 286 285 286 285 284 284 284 283 282 281 281 281 280 279 278
303 305 306 309 312 311 311 311 311 311 311 308 302 298 299 302 304 307 307 306 306 306 306 307 306 305 305 302 299 300 303 304 304 302 298 296 296 295 295 295 294 293 292 292 292 292 291 291 291 291 291 291 292 291 291 291 290 289 288 288 287 286 286 286 287 287 287 287 287 287 287 286 285 285 285 284 284 283 282 281 281 280 280 279 278 277
304 305 306 308 310 310 312 312 311 310 310 306 300 297 298 300 303 307 307 303 301 300 300 302 304 304 303 302 299 300 302 302 300 297 294 293 294 293 292 292 292 292 291 291 291 291 290 290 290 291 291 291 291 291 290 290 289 289 288 287 286 286 287 287 287 287 286 286 286 286 285 285 285 285 284 283 283 282 281 281 280 280 279 278 277 276
305 306 306 307 309 309 311 311 311 312 309 302 297 296 298 302 305 305 301 298 300 300 299 299 302 302 301 300 299 299 300 298 295 294 293 292 293 292 291 290 289 289 289 289 289 289 289 289 290 290 291 291 291 291 291 289 289 288 288 286 287 288 289 288 287 286 286 286 285 285 284 284 284 284 283 282 282 281 280 280 279 279 278 277 276 275
306 306 305 307 308 308 309 310 311 312 305 298 297 298 298 301 303 300 296 295 298 299 298 298 299 299 298 298 297 298 298 295 293 293 293 292 292 291 290 290 289 289 288 288 288 289 289 289 289 289 290 291 291 292 291 289 288 288 286 287 289 291 289 287 286 286 285 285 284 283 283 284 284 283 282 281 281 280 280 279 279 278 277 276 275 274
305 306 306 306 307 308 309 310 309 306 301 299 301 302 300 300 299 297 297 297 295 295 296 297 297 297 297 297 297 296 296 295 293 292 292 292 291 291 290 290 290 290 289 289 289 290 289 290 289 289 290 290 291 291 290 289 289 287 286 289 291 291 288 286 286 285 284 284 283 283 283 283 282 281 281 280 280 279 279 278 278 277 276 275 274 273
304 304 303 304 306 307 306 304 301 298 297 298 300 301 301 300 298 297 298 298 295 294 295 295 296 296 295 295 296 295 295 294 293 292 292 292 291 291 290 290 290 290 290 289 289 289 289 290 290 290 289 290 290 290 290 289 288 286 287 291 291 289 287 286 285 284 284 283 282 282 282 282 281 280 280 279 279 278 278 278 277 276 275 275 273 273
298 297 298 300 302 303 301 298 296 296 298 298 297 297 298 298 297 296 297 297 296 295 294 295 296 296 295 295 295 294 294 294 293 292 292 292 291 291 290 290 290 290 290 289 289 289 289 289 289 289 288 288 289 290 290 289 288 288 290 291 289 287 286 285 284 284 283 282 282 282 281 280 279 278 278 278 277 277 277 277 276 275 275 274 273 272
295 294 296 298 301 303 301 297 295 295 296 296 296 296 295 295 294 294 295 296 296 295 294 294 294 294 294 294 294 293 293 293 292 292 292 291 292 291 291 291 290 290 289 289 289 289 288 287 287 287 287 288 289 290 290 289 289 290 290 289 287 286 285 284 284 283 282 281 281 280 279 279 278 277 277 276 276 276 276 275 275 274 274 274 273 272
297 295 296 297 299 299 298 294 292 292 292 293 295 295 296 296 295 293 293 294 293 292 292 292 292 292 292 293 293 292 293 293 292 292 292 291 291 291 291 291 290 290 290 289 289 288 288 287 286 287 287 287 288 289 290 289 290 290 289 288 287 286 285 284 283 283 282 281 280 278 277 277 277 276 276 275 275 276 275 275 275 275 275 274 274 273
297 296 296 296 297 297 295 292 291 292 293 293 293 294 294 295 295 293 292 291 291 291 291 291 290 291 291 292 292 292 293 293 292 292 292 291 291 291 291 291 290 290 290 290 289 288 288 287 287 287 287 287 288 288 288 289 289 289 288 287 286 285 284 283 282 281 280 279 278 277 276 276 275 275 275 275 275 275 274 275 275 275 275 274 274 273
296 297 297 296 296 297 296 294 293 294 295 295 294 294 294 294 294 293 292 292 292 292 291 291 291 290 290 290 290 291 292 292 291 292 292 291 291 291 291 290 290 290 290 289 288 288 287 287 287 286 286 287 287 287 287 288 289 289 287 286 285 284 283 282 281 279 279 278 277 276 276 275 274 274 274 274 274 274 273 274 274 274 273 273 273 272
296 297 297 296 297 298 296 295 294 295 296 296 296 295 295 294 293 293 293 293 294 293 292 292 292 292 291 290 289 290 291 291 291 291 292 291 291 291 291 290 290 290 289 288 287 287 286 286 286 285 285 286 286 286 286 287 288 287 286 285 284 283 282 281 280 278 277 277 277 276 275 274 274 273 273 273 273 273 272 272 272 272 272 272 272 271
Wind_Speed
4 6 7 8 10 10 12 14 14 11 7 7 7 7 9 8 8 5 3 6 2 4 8 10 11 13 12 8 10 8 7 7 7 7 7 6 5 5 4 4 4 3 3 3 2 2 3 3 3 3 4 4 6 8 10 14 17 19 20 21 21 19 17 18 22 23 23 25 25 26 27 27 27 27 26 25 24 23 23 22 21 21 20 18 18 18
3 8 10 12 13 9 8 12 14 10 6 8 8 8 8 8 10 7 2 5 3 3 8 11 11 13 14 8 10 9 8 9 9 9 8 7 6 4 5 5 4 3 3 3 3 3 3 3 3 3 4 4 5 7 10 13 15 17 17 17 18 17 16 17 20 21 21 22 22 23 25 25 26 26 26 26 25 25 24 23 23 23 22 21 20 20
6 10 13 13 9 3 2 5 9 9 9 9 7 7 8 7 8 5 4 5 3 3 6 9 9 11 11 6 10 9 9 7 6 5 5 6 6 5 5 5 5 4 4 4 4 4 4 4 3 3 4 4 5 6 9 10 12 12 12 14 16 17 18 19 20 22 23 23 23 24 25 26 27 28 27 27 26 25 25 25 25 24 24 23 23 22
7 8 12 11 5 5 5 4 6 7 7 8 7 7 7 6 7 5 3 4 4 4 4 5 6 10 8 6 8 7 6 5 3 2 2 3 4 5 5 4 5 5 5 5 4 5 5 4 4 4 4 4 4 6 7 8 8 9 10 12 15 17 19 20 20 21 22 23 25 28 29 29 29 28 27 27 27 26 26 26 26 26 25 25 26 26
11 3 3 8 7 8 9 7 8 7 7 9 10 9 8 8 9 7 2 3 4 6 5 5 7 9 10 11 8 6 5 5 5 5 5 5 4 3 4 4 4 4 5 5 5 5 5 5 5 4 4 4 5 6 7 8 7 9 11 13 15 17 19 20 21 22 24 27 28 28 26 24 23 21 21 22 23 24 26 27 27 28 27 28 28 28
12 1 3 8 7 9 10 8 9 8 7 9 10 12 12 12 11 10 4 1 5 6 6 6 6 5 7 12 10 7 6 7 7 7 8 7 7 5 5 6 5 4 4 4 5 5 5 5 6 5 5 5 6 7 8 8 8 9 11 12 14 17 19 20 20 19 21 22 20 18 17 15 16 16 16 17 18 20 23 26 28 28 28 28 28 28
4 3 4 8 7 8 9 8 9 9 8 7 4 6 11 12 12 11 7 3 5 4 3 4 7 4 2 7 8 7 8 9 8 8 9 8 8 8 7 6 7 6 5 4 5 6 6 6 6 6 5 5 6 7 7 8 9 11 12 13 15 16 18 18 14 11 11 13 13 14 15 15 16 17 16 16 17 18 20 24 27 28 27 27 27 27
5 7 5 7 8 8 9 8 9 10 8 4 2 1 5 8 10 10 8 6 5 4 1 5 6 6 5 4 7 8 8 9 9 10 10 10 9 9 8 7 8 7 7 6 6 7 7 6 7 7 6 6 6 7 8 9 10 11 13 15 17 17 17 16 13 11 11 15 18 19 20 19 18 19 18 17 18 18 19 21 23 25 26 26 26 25
5 9 9 10 10 8 8 7 7 12 9 2 4 3 1 2 5 6 6 6 5 4 4 7 6 5 7 4 6 6 7 9 11 13 12 12 11 11 10 9 9 8 7 7 7 7 8 7 6 7 7 6 7 7 8 10 11 12 15 16 17 16 16 15 15 17 19 22 23 21 22 22 19 19 19 18 18 17 18 18 19 20 22 23 24 23
2 3 5 9 10 8 5 1 2 7 6 2 6 5 4 2 1 3 5 5 4 5 7 8 9 6 7 5 6 5 5 9 10 11 12 13 12 11 10 10 10 9 7 7 8 8 8 8 7 7 7 7 7 8 9 10 11 13 14 15 15 16 15 16 18 21 23 24 24 22 21 21 19 18 17 17 16 16 16 17 16 16 17 19 21 21
3 2 1 4 4 2 4 7 5 1 3 7 7 5 4 3 2 3 4 3 5 8 9 11 13 9 7 5 7 5 3 6 7 9 11 12 13 12 11 11 10 9 8 7 8 9 8 8 7 7 8 8 8 8 9 10 11 11 12 14 15 16 17 19 21 22 24 24 25 23 20 20 19 17 17 16 16 15 15 15 15 15 15 16 18 19
4 3 2 1 0 2 6 5 4 3 3 5 5 4 3 3 3 4 4 4 7 9 6 7 10 11 9 5 5 5 5 4 5 9 13 15 14 13 11 11 11 9 9 8 7 8 9 8 8 7 8 9 8 9 9 10 11 11 12 15 17 18 19 21 22 23 25 24 23 22 20 19 18 17 17 17 16 14 14 14 13 13 13 14 16 17
5 7 6 3 0 4 6 4 3 2 2 5 5 6 5 4 3 5 6 6 8 6 2 3 4 7 9 8 6 5 7 6 4 4 12 16 14 14 13 11 11 9 9 9 8 8 9 9 9 9 10 10 9 10 10 10 11 11 12 16 18 20 21 23 23 25 25 23 21 21 21 20 20 19 18 17 16 14 14 14 13 13 13 14 15 16
4 6 9 6 2 7 11 8 5 4 6 9 9 8 7 6 5 7 7 7 8 3 2 3 4 4 6 7 9 5 7 6 6 5 6 14 15 14 14 12 11 10 9 9 8 8 8 10 11 11 11 11 10 11 11 11 11 12 13 16 20 21 22 24 24 23 23 21 21 23 23 23 22 21 19 17 17 16 15 15 14 13 13 14 14 14
6 5 9 11 6 10 14 11 7 7 8 10 9 8 8 7 6 7 6 7 6 2 2 3 3 5 4 2 1 4 7 6 6 5 4 10 13 12 12 12 11 11 10 8 8 9 10 12 12 12 12 11 11 12 11 11 12 13 14 18 22 22 21 22 22 22 23 23 23 24 23 23 23 22 20 19 19 18 17 16 15 14 13 13 14 13
9 6 6 7 4 13 16 10 7 8 7 8 7 8 9 6 5 4 1 2 2 0 2 5 4 4 3 2 3 4 5 6 6 5 6 9 12 12 11 11 11 10 10 9 9 9 11 13 13 12 12 12 12 12 12 12 12 14 15 18 20 21 20 21 22 23 24 25 24 23 23 23 23 22 21 20 20 19 18 17 16 15 14 13 13 13
7 3 4 4 1 9 8 4 6 5 3 5 7 8 5 1 2 3 1 1 1 5 4 6 5 4 2 2 4 5 5 6 7 6 8 10 12 12 10 10 11 11 11 10 10 10 12 14 13 13 13 13 13 13 13 13 13 15 17 18 19 19 20 21 23 24 25 25 24 23 23 23 22 22 21 20 19 18 18 16 15 14 13 12 12 11
6 2 3 4 3 3 2 2 3 2 1 5 6 6 4 2 3 3 4 2 3 7 4 6 8 7 5 4 4 6 6 7 7 7 9 9 11 11 10 11 11 11 11 11 11 11 13 15 15 14 13 13 14 14 14 14 14 15 16 19 21 21 22 23 25 25 25 25 24 23 22 22 21 21 20 20 18 17 16 15 14 12 12 11 10 10
6 4 2 3 3 4 2 1 4 3 2 1 2 2 3 3 6 6 5 5 5 7 5 5 8 8 8 6 6 9 9 10 10 9 10 11 12 11 11 12 13 12 11 11 11 11 13 15 16 15 15 15 15 15 15 15 15 16 16 18 20 21 23 26 26 25 23 24 24 22 22 22 21 21 20 18 17 15 14 13 12 11 11 10 10 9
6 6 3 1 2 5 4 5 8 7 5 1 3 3 2 2 5 6 6 4 5 6 6 4 5 6 8 8 12 14 12 11 12 10 10 12 13 12 12 13 13 13 12 12 12 11 13 16 16 16 17 16 16 16 15 16 16 16 17 18 19 21 23 24 25 24 23 24 24 23 23 22 21 20 19 17 15 14 13 12 11 11 10 9 9 8
4 5 4 2 3 5 5 7 10 9 8 7 6 7 6 3 1 3 5 4 4 5 6 6 5 3 2 5 12 16 14 12 12 11 11 12 12 13 13 13 13 13 12 12 12 12 14 17 17 17 17 16 16 16 15 17 18 17 17 18 19 21 23 23 23 23 24 25 25 24 23 22 20 19 17 16 14 13 12 11 10 10 9 8 8 7
4 5 5 3 4 7 4 2 4 4 6 8 9 9 9 7 4 4 6 5 2 4 4 5 7 2 2 2 3 8 9 10 11 11 10 11 13 13 12 13 13 13 13 13 12 12 14 17 17 17 17 16 16 16 16 18 18 18 18 19 20 22 23 23 23 23 25 26 25 24 23 21 19 18 16 14 13 12 11 10 9 8 8 7 7 7
0 2 6 4 3 5 1 3 1 1 2 5 7 8 8 8 9 9 7 4 4 2 0 2 6 2 3 3 4 4 3 4 6 8 9 9 12 12 11 13 13 13 13 12 12 12 14 17 17 17 17 17 17 17 18 18 18 19 19 20 21 23 23 24 25 26 27 27 25 24 22 20 18 16 15 13 12 11 10 9 9 8 7 7 6 6
1 1 5 3 0 1 2 2 2 1 1 6 7 6 8 10 10 7 3 1 4 5 3 3 7 3 2 3 4 4 4 3 1 4 7 7 8 10 11 12 12 12 12 11 11 12 14 16 16 17 17 17 18 18 19 19 19 20 20 21 22 23 23 25 26 28 28 27 25 23 21 19 17 16 14 13 11 11 10 9 8 7 6 6 5 6
4 3 4 3 2 3 4 4 5 4 4 7 7 7 10 10 5 2 0 0 5 8 8 7 8 3 3 2 2 2 1 1 2 2 4 6 7 8 9 9 10 11 11 11 11 11 13 15 15 16 17 18 18 19 20 20 20 21 21 22 23 23 25 27 28 28 28 26 25 23 21 19 17 16 14 13 11 10 9 9 8 6 6 5 4 5
4 5 5 7 8 9 8 6 5 5 6 5 6 8 11 11 8 4 3 5 9 7 8 9 8 3 4 1 1 1 2 3 4 3 2 3 5 7 8 8 9 10 11 12 12 11 11 12 14 16 18 19 19 20 21 21 21 21 21 22 24 26 27 28 28 29 28 26 25 23 20 19 17 16 15 13 11 10 9 9 7 6 4 3 2 3
1 3 7 12 12 8 4 3 2 3 8 8 9 10 11 13 11 6 5 8 7 3 6 12 8 3 4 5 5 4 4 4 4 4 4 3 5 6 6 7 8 9 9 11 11 10 10 11 14 17 19 19 20 20 21 22 22 22 22 22 26 27 28 29 30 30 28 26 25 23 21 19 17 16 15 13 12 11 10 8 7 5 4 2 1 2
1 5 11 15 14 6 1 2 4 0 7 12 13 13 11 11 12 11 12 11 5 4 8 8 6 6 8 8 8 6 5 5 5 5 5 5 6 6 6 7 9 9 9 10 11 11 11 11 13 17 19 19 20 21 21 21 22 23 23 24 27 28 29 31 31 30 29 27 25 23 22 20 18 18 17 15 13 12 10 8 7 5 4 2 1 1
3 8 10 12 13 6 2 2 4 3 3 5 11 15 12 11 15 17 18 14 7 7 10 3 7 9 9 6 8 8 7 8 7 5 4 5 7 8 8 8 9 10 10 11 12 12 12 12 13 16 20 20 21 22 22 21 23 24 24 26 30 31 31 33 33 31 29 26 24 23 22 21 21 20 18 16 14 13 11 9 7 6 4 3 2 3
3 7 6 5 10 8 1 2 2 2 3 2 6 11 11 13 15 16 17 13 7 10 12 3 3 8 7 5 6 5 5 5 3 4 4 7 8 9 9 9 9 10 10 11 12 12 13 13 13 15 18 19 20 23 23 22 25 27 25 27 32 33 33 35 34 32 30 27 23 22 23 24 23 21 19 17 16 14 12 10 8 7 6 4 4 4
3 5 4 3 6 7 3 1 0 1 1 2 5 8 11 13 12 11 13 10 7 12 12 6 8 9 5 3 3 4 3 3 4 5 6 7 8 9 8 8 9 9 10 10 11 11 11 11 11 13 16 19 22 24 25 24 26 26 24 28 35 36 36 36 35 32 29 26 23 24 25 26 24 22 21 19 17 16 14 11 10 8 7 6 5 5
4 3 3 4 7 6 3 4 4 3 3 3 9 14 14 12 10 9 10 8 10 12 9 7 9 9 2 5 4 3 4 4 5 7 7 6 7 8 8 8 8 8 9 10 10 10 9 10 11 13 17 20 23 25 26 26 27 26 28 34 37 37 37 35 34 31 28 26 25 25 26 26 25 24 23 21 19 17 15 13 11 10 8 7 6 6
5 4 3 5 6 3 0 4 6 5 2 4 10 11 11 10 10 10 9 10 11 10 7 8 10 6 3 5 5 5 6 7 7 7 6 6 6 7 7 7 7 6 6 6 7 7 8 9 11 15 18 21 24 27 28 29 31 34 37 39 38 37 36 34 33 31 29 28 28 27 28 28 26 26 24 23 21 18 16 14 13 11 10 9 7 7
5 5 4 4 4 1 1 4 5 4 5 4 4 5 12 14 13 11 11 11 10 9 8 8 8 4 5 7 7 7 7 8 7 6 5 4 4 6 7 6 5 4 4 4 5 5 7 9 12 15 18 21 25 27 28 30 35 39 41 39 37 36 35 33 32 30 29 29 29 30 30 29 28 28 26 24 22 20 18 16 14 12 11 10 8 8
6 5 4 2 2 2 3 5 5 6 5 2 2 1 8 11 13 12 12 13 12 12 11 11 10 8 7 7 6 6 5 3 2 3 2 2 3 5 6 5 5 4 4 5 5 6 8 10 12 13 16 20 22 24 25 27 32 36 37 36 35 35 35 34 32 31 30 31 31 32 32 31 30 30 28 26 24 22 19 16 14 13 12 10 9 9
5 5 3 2 3 3 3 6 6 2 2 2 3 2 3 3 7 9 10 14 15 12 10 11 13 12 9 7 5 2 2 3 3 3 2 2 3 4 5 5 6 6 7 6 7 8 9 11 13 14 16 17 19 21 23 25 28 31 32 32 34 34 34 34 33 32 32 33 34 34 34 33 32 31 29 28 26 23 20 17 15 14 13 11 10 11
3 3 2 3 3 2 3 6 3 5 6 6 5 6 7 6 7 8 7 10 10 9 9 11 13 13 10 6 4 4 4 2 4 5 5 7 6 6 6 6 5 6 7 7 7 8 9 11 12 12 13 15 16 18 20 23 26 29 29 30 32 32 32 32 33 34 35 37 37 37 36 35 34 33 31 30 27 24 21 18 16 15 13 12 11 11
1 1 1 3 4 3 3 4 3 3 7 6 2 6 10 8 7 8 6 7 6 10 12 12 12 12 9 5 6 5 4 0 6 6 5 7 8 7 7 6 4 4 5 6 7 7 8 9 10 11 13 14 15 16 18 21 25 28 29 30 31 33 33 34 36 38 39 40 40 39 37 37 36 35 33 31 28 24 21 18 17 15 13 12 12 12
1 1 1 2 3 3 4 5 5 5 7 4 2 4 5 6 8 8 3 6 5 10 11 12 12 11 8 7 7 6 4 3 7 5 2 5 6 7 7 6 5 5 5 6 7 7 8 8 9 10 12 13 15 16 18 21 26 29 30 31 33 34 36 38 40 42 42 43 42 40 39 39 37 35 33 31 28 24 21 19 17 15 14 13 12 12
2 2 3 4 5 6 7 6 4 4 4 1 4 4 3 5 9 7 3 5 4 7 8 9 10 8 7 7 6 6 6 6 5 2 2 4 4 4 5 5 6 7 7 7 7 7 7 9 10 12 13 14 15 17 19 22 25 29 31 32 32 34 38 42 44 44 44 43 42 40 40 39 37 35 33 31 27 23 21 19 18 16 14 13 12 12
3 3 4 6 6 8 10 7 4 4 3 3 7 6 5 5 5 6 5 1 3 5 3 4 7 6 6 7 6 5 7 4 2 3 3 4 3 3 4 4 5 6 7 8 9 9 9 10 12 13 15 15 15 17 20 21 24 28 29 30 32 35 40 44 45 44 43 41 40 40 40 38 36 34 33 30 26 23 22 20 18 16 14 12 12 12
4 3 4 6 6 7 8 7 4 4 2 6 7 4 4 4 4 4 2 2 4 5 3 4 5 4 5 6 5 5 5 2 4 4 4 4 4 4 5 6 6 6 6 8 10 11 11 11 11 13 14 14 16 18 19 21 25 28 28 29 33 38 40 41 41 40 40 39 39 39 38 37 36 34 32 30 27 24 22 20 18 16 14 13 13 12
5 5 4 5 5 4 4 6 5 3 1 9 10 4 2 3 2 2 3 2 1 3 4 4 4 3 4 5 5 6 4 3 4 3 3 3 3 4 5 6 6 6 7 9 11 13 13 12 13 14 14 15 17 19 19 22 25 26 26 29 33 36 36 37 37 37 37 38 38 38 37 36 35 34 32 30 27 24 22 20 18 16 14 13 13 12
5 6 3 4 5 5 5 6 3 0 3 8 8 3 3 3 2 4 6 3 0 2 3 3 3 3 4 5 5 7 5 4 4 4 3 3 3 3 4 5 6 6 8 10 12 14 15 14 14 15 15 16 18 18 20 24 26 25 27 31 32 32 33 33 34 35 36 36 37 37 36 36 35 34 32 29 26 24 22 20 18 16 15 14 13 12
4 4 1 2 4 4 3 2 1 2 3 5 2 2 2 4 3 2 4 5 3 3 3 3 4 5 5 5 4 4 4 4 4 4 4 4 3 3 4 5 7 8 8 10 11 14 17 17 15 15 16 17 18 19 21 25 26 27 29 30 30 30 32 32 33 34 35 36 36 36 36 35 34 33 31 29 26 24 23 21 19 17 15 14 13 13
1 1 1 0 2 3 1 2 3 1 3 4 2 3 2 3 2 0 2 4 4 4 4 4 4 4 5 5 4 3 4 4 4 5 5 4 3 4 5 5 7 9 10 11 12 14 17 17 16 15 16 17 19 20 22 25 27 29 30 29 28 30 31 32 33 35 35 35 36 36 36 35 34 32 31 28 26 24 23 21 19 17 16 15 14 14
2 3 1 1 3 4 2 3 4 2 1 2 2 1 0 1 0 0 1 2 3 3 3 2 2 3 4 4 4 5 4 4 4 5 4 4 5 5 6 7 9 11 14 16 17 16 17 16 16 16 17 19 22 22 23 26 29 30 30 28 27 28 30 31 33 34 34 35 35 35 36 35 34 33 31 28 26 25 24 22 20 18 18 16 16 15
3 5 4 4 6 4 1 3 3 2 1 0 1 1 1 1 2 1 0 2 3 2 2 2 2 3 4 4 5 6 5 4 5 4 4 4 5 6 6 9 12 15 17 19 19 17 17 17 18 19 20 23 24 25 25 27 29 31 31 29 27 27 29 31 33 34 34 35 35 35 36 35 34 33 31 29 28 26 25 24 22 20 19 18 17 16
3 5 4 4 4 3 2 2 2 1 1 2 3 4 4 3 3 3 2 2 1 1 2 2 2 3 3 3 4 5 4 4 4 4 5 6 5 5 7 11 14 16 18 19 19 19 19 20 21 22 23 26 26 25 26 28 28 30 32 33 31 28 28 31 33 33 33 33 34 35 35 35 34 32 31 30 29 27 26 24 22 20 19 18 17 16
4 5 5 5 4 4 4 5 6 3 2 3 5 7 7 5 4 4 3 3 4 5 4 4 3 3 4 4 3 4 4 5 5 6 6 6 5 7 10 12 13 14 15 14 14 17 19 21 22 22 23 25 24 23 25 28 29 30 32 34 33 31 30 31 31 31 32 33 35 36 36 36 34 32 31 30 29 27 25 23 20 19 18 17 16 16
6 7 5 5 6 4 3 7 7 5 4 3 4 6 6 4 4 4 5 6 6 5 5 5 5 5 4 5 6 7 6 5 7 7 6 6 8 10 11 12 12 13 12 11 12 13 16 19 20 20 22 25 24 23 25 28 29 29 30 32 34 34 32 30 30 31 33 35 37 37 37 37 36 34 32 29 28 27 26 23 20 19 18 17 16 16
Wind_Direction
195 211 208 221 228 227 220 216 230 250 279 294 286 278 268 264 266 267 120 126 162 250 249 257 258 261 259 209 167 168 178 194 199 193 194 186 178 181 178 172 168 154 114 99 90 61 57 47 49 63 55 66 81 84 97 107 112 114 115 112 107 107 108 108 109 107 105 104 102 98 94 92 90 90 90 88 88 88 88 88 88 86 85 85 86 86
197 223 224 226 233 246 239 222 231 247 261 266 266 267 259 253 262 264 138 129 153 247 260 266 261 259 263 230 160 164 185 198 202 200 201 190 177 178 177 175 167 142 131 141 131 99 87 72 64 71 68 64 71 92 108 113 117 118 116 114 111 113 115 115 117 115 112 108 105 104 102 99 94 92 91 90 89 90 91 90 89 88 86 86 85 87
217 229 232 234 232 223 233 222 230 242 249 254 253 255 255 253 263 251 139 136 184 234 266 266 259 262 261 206 158 176 192 192 194 197 199 187 183 184 180 178 171 156 150 149 135 121 112 95 87 82 77 74 75 93 104 109 115 112 109 114 118 119 119 118 119 118 115 111 110 110 108 106 100 96 95 94 92 92 92 90 90 89 87 88 86 85
226 234 233 225 198 182 207 209 219 240 244 241 238 243 250 248 256 249 156 146 196 230 288 292 272 270 257 174 161 188 186 166 160 178 198 191 196 190 177 174 171 168 159 148 140 130 126 118 108 100 89 88 87 84 87 91 98 97 97 107 115 120 122 123 123 120 118 117 115 112 108 105 100 96 95 94 92 91 91 89 88 88 87 87 86 85
238 263 214 197 188 213 225 208 207 231 239 232 231 235 251 250 248 255 209 137 217 230 242 267 276 268 242 208 187 171 173 183 178 187 201 202 206 186 166 177 173 163 156 152 146 137 134 129 119 112 104 100 92 85 88 86 81 87 94 101 107 111 114 117 117 117 117 116 113 109 105 101 97 92 88 85 84 85 86 85 85 86 86 86 85 84
242 219 133 182 190 213 223 218 205 217 245 242 228 225 244 258 259 262 257 199 267 248 195 218 262 274 232 210 190 154 176 197 184 194 204 196 195 194 189 185 173 159 152 148 141 138 137 132 129 117 106 100 89 87 95 91 85 92 96 99 103 105 108 110 110 112 113 112 110 109 107 104 99 90 81 80 82 81 83 85 86 86 85 85 83 82
228 137 151 177 182 201 214 228 207 203 240 254 235 218 237 256 261 258 250 223 265 275 152 198 253 274 226 195 173 157 184 189 180 198 202 192 190 193 194 181 171 169 160 147 141 144 142 140 140 125 108 98 94 98 100 95 97 104 106 107 111 114 117 117 112 109 109 112 113 110 105 102 100 96 89 89 89 86 86 86 86 85 84 83 81 79
153 160 169 173 192 208 214 233 212 197 228 249 44 54 225 243 249 243 236 229 256 295 176 190 234 267 260 193 152 159 184 187 191 202 197 194 194 188 187 179 170 166 159 155 154 154 151 146 141 129 115 101 103 108 106 106 107 110 117 123 125 126 126 125 120 113 113 119 118 110 103 98 97 99 99 97 93 91 89 85 83 82 81 81 79 77
151 179 185 187 205 217 218 235 200 190 220 240 76 66 131 229 243 226 226 234 251 278 242 196 188 243 255 197 143 164 200 212 206 199 195 195 192 183 180 175 166 158 155 158 159 157 154 147 136 130 123 110 114 119 116 120 121 123 129 131 131 130 127 127 127 123 122 122 118 110 106 103 100 100 101 99 96 92 89 85 82 79 77 76 75 75
88 187 202 205 216 220 199 56 129 193 216 151 110 95 88 96 182 199 224 237 233 245 246 211 185 216 258 218 172 174 219 231 209 188 191 190 181 178 175 168 161 157 155 159 159 157 154 146 135 130 127 118 120 125 125 125 126 129 131 131 131 129 126 128 130 129 125 122 117 111 108 106 105 105 103 100 96 91 88 85 80 77 74 72 71 71
99 82 322 227 229 210 116 69 37 29 133 135 136 119 117 141 151 191 228 233 243 244 238 221 203 213 260 238 201 192 205 222 186 166 180 178 172 173 171 165 161 159 160 162 161 156 149 142 137 136 130 126 125 125 127 129 129 128 128 131 131 129 129 130 132 130 126 121 117 112 108 107 107 107 105 101 96 91 88 84 80 78 74 72 72 70
166 170 171 156 97 107 112 96 56 52 115 153 165 164 173 187 173 214 226 206 246 250 227 215 207 212 236 238 201 166 142 162 160 166 174 170 170 170 166 164 162 162 163 163 164 159 153 149 148 147 139 135 134 133 134 134 132 129 129 134 133 131 133 133 132 131 126 120 116 112 108 106 106 105 103 99 96 92 89 86 84 80 75 71 71 69
208 206 178 124 125 189 169 144 103 93 180 192 189 184 199 210 196 225 225 209 238 245 153 141 177 216 238 239 220 161 136 146 126 149 170 165 166 166 163 163 160 162 165 165 168 164 162 162 160 158 150 146 145 143 141 137 135 132 132 137 134 133 136 134 131 129 124 119 115 115 112 110 109 106 102 98 95 93 90 88 85 81 77 72 69 67
206 204 181 163 187 200 192 183 169 172 186 192 190 185 197 206 215 231 226 224 236 227 123 139 166 234 247 235 226 172 118 115 86 70 154 162 162 162 160 160 158 162 166 166 169 167 168 168 165 163 157 153 152 149 147 143 141 138 136 139 137 134 136 134 131 128 124 120 119 119 117 115 114 109 103 100 99 97 94 92 89 84 82 77 73 70
214 232 182 178 173 175 192 211 203 168 173 194 196 195 206 210 225 237 229 231 229 150 122 158 172 216 208 188 206 117 97 98 95 75 113 149 155 153 153 156 157 163 167 169 170 171 173 170 166 164 159 157 157 155 153 149 146 143 142 144 141 137 136 135 133 131 128 126 124 123 121 118 117 112 107 105 104 102 99 97 94 90 86 81 75 70
224 254 162 160 146 164 185 216 201 162 171 194 196 209 220 227 244 258 265 240 235 117 177 186 222 242 185 100 79 109 119 120 116 116 130 145 149 149 155 161 163 168 171 171 172 173 173 170 168 165 161 160 159 158 159 155 153 150 146 146 142 139 138 137 136 134 132 131 129 126 124 122 119 115 112 110 109 105 101 97 93 89 84 77 70 63
218 258 122 118 114 171 185 209 189 184 174 172 192 208 204 6 310 263 212 126 257 269 222 171 221 258 186 176 141 134 149 143 136 142 149 152 153 156 164 167 170 173 172 173 174 173 173 172 170 167 164 163 163 165 165 162 159 155 150 148 145 142 140 140 139 138 136 134 131 127 125 122 119 117 114 112 109 104 99 94 89 84 79 73 66 59
215 248 152 164 178 165 2 341 220 275 63 155 193 193 125 36 319 272 248 222 215 251 239 172 208 215 196 202 147 145 175 172 164 158 156 162 166 172 177 175 175 175 172 172 172 174 175 174 172 169 166 166 167 168 167 164 161 158 156 153 150 147 146 146 144 141 138 135 131 128 127 124 122 120 116 113 110 105 100 95 90 86 79 72 64 58
201 232 190 162 166 125 76 243 215 238 231 218 264 181 141 221 226 205 232 244 217 235 250 203 208 214 212 199 159 174 192 186 175 165 168 178 181 186 184 178 177 173 171 173 175 179 179 176 174 170 167 168 170 170 168 165 162 160 160 157 153 151 151 151 148 145 142 140 136 133 132 130 127 124 120 117 113 108 104 100 96 89 81 73 64 57
183 221 220 124 105 127 146 209 203 194 199 275 298 220 193 245 232 207 213 237 225 232 250 224 200 215 221 193 172 183 192 181 171 172 185 190 187 188 184 179 178 177 177 178 179 182 180 177 174 169 169 169 169 170 169 168 166 163 162 159 157 155 155 154 151 149 148 146 143 140 138 135 132 129 125 121 117 112 108 103 96 88 79 74 66 58
176 215 216 111 113 155 177 207 206 197 188 195 208 204 195 188 239 256 231 227 236 239 244 250 248 231 202 177 175 184 189 178 168 177 193 193 189 189 186 183 179 178 181 180 181 182 177 173 170 168 170 169 168 170 170 171 170 166 165 164 162 160 159 158 155 155 154 151 148 146 143 141 138 135 131 126 122 116 111 105 98 91 83 77 68 59
195 206 206 173 173 199 202 181 210 220 202 201 204 203 202 191 181 223 223 203 214 249 245 264 271 257 85 54 153 169 178 173 170 179 186 188 189 188 188 186 181 180 183 182 180 177 171 170 168 168 169 167 169 172 173 174 174 171 170 168 166 165 164 163 161 161 159 156 153 152 149 147 144 141 137 132 128 122 118 113 105 98 89 82 70 58
282 223 219 212 190 200 177 76 86 298 269 247 235 219 209 200 198 213 220 182 164 217 292 310 282 273 81 47 44 61 82 126 157 174 177 184 189 184 183 183 182 185 184 179 176 170 167 168 167 168 169 169 174 177 177 178 178 177 175 172 172 171 168 167 167 167 164 160 159 158 155 152 150 148 144 140 138 135 129 122 115 108 99 88 70 51
49 217 215 223 47 143 138 136 155 117 273 253 243 224 214 213 207 214 242 160 176 195 174 221 253 245 90 49 48 48 41 55 115 175 172 174 175 174 177 178 182 186 180 171 167 162 161 164 167 169 171 174 179 181 181 182 181 180 178 177 176 174 172 173 173 171 168 166 165 164 161 160 158 156 156 154 152 148 141 135 128 119 106 90 64 42
179 188 188 192 237 217 198 203 210 194 197 227 227 213 220 221 193 164 12 105 226 214 182 211 245 211 127 49 42 58 43 130 183 184 165 155 153 162 167 172 180 180 172 164 161 160 163 166 169 173 177 181 184 184 185 185 184 182 180 179 178 176 177 179 178 176 174 172 171 170 169 168 167 166 167 166 164 161 155 148 142 131 116 95 63 37
190 189 178 190 213 218 215 223 226 190 171 214 224 202 212 212 182 166 192 218 238 217 175 213 239 152 127 162 170 176 230 218 186 171 163 141 143 157 164 172 179 175 170 166 164 166 168 168 173 179 183 186 186 186 187 187 185 183 182 182 182 181 181 182 182 180 178 177 176 176 175 175 176 177 178 178 177 176 171 162 154 146 136 114 70 34
174 216 208 212 221 220 215 270 314 124 155 192 204 190 198 206 194 184 208 219 222 181 200 224 220 164 167 188 197 199 204 226 205 170 173 171 159 166 169 173 178 177 175 171 170 171 169 172 183 188 189 189 187 188 188 188 186 183 182 183 185 184 184 185 185 184 183 183 181 181 181 181 183 186 188 188 189 189 185 177 168 165 164 149 93 18
121 235 225 227 237 238 99 333 331 296 190 198 198 192 192 196 193 195 216 219 172 153 230 217 173 210 217 182 189 201 193 221 220 185 186 189 180 177 171 173 180 183 182 178 177 176 175 182 190 192 193 190 186 187 188 187 186 185 185 186 186 187 188 189 188 188 188 187 186 186 185 185 189 194 196 196 198 200 196 189 185 185 188 194 247 325
170 233 230 229 240 238 87 352 326 320 256 208 195 197 190 186 191 201 218 218 173 201 240 167 137 218 232 190 190 189 186 210 209 183 173 168 171 174 170 174 183 186 186 184 184 184 186 193 194 192 193 188 184 186 187 186 187 189 190 188 189 191 192 192 190 188 188 188 187 187 188 191 196 200 202 202 204 206 204 201 201 203 208 224 259 298
191 229 225 217 235 235 206 344 335 1 330 281 217 206 196 193 197 205 218 218 199 230 251 255 208 244 251 228 205 168 172 199 163 133 147 158 167 171 171 179 187 190 190 189 191 195 197 200 195 190 188 185 185 187 187 187 190 192 188 188 192 194 194 194 192 190 190 188 186 188 192 198 202 203 204 205 208 211 211 211 212 215 223 235 257 289
212 219 175 156 231 235 199 150 40 45 333 278 261 239 219 206 200 208 221 218 217 240 249 258 268 268 252 198 152 110 112 112 122 162 176 171 169 168 174 187 191 193 194 193 197 200 202 203 197 189 187 188 190 191 191 191 191 190 186 190 196 197 196 196 193 191 191 188 188 193 199 203 205 205 206 207 211 215 216 217 220 222 229 240 257 282
202 206 137 161 221 228 189 168 161 101 64 286 262 247 229 210 197 205 219 212 209 229 241 243 252 256 202 119 112 123 147 158 183 193 185 175 170 170 183 192 193 195 191 191 197 198 199 201 195 191 191 193 195 195 196 194 190 189 191 196 200 199 197 196 193 191 191 190 192 198 202 206 207 207 208 209 213 218 218 220 223 225 233 244 258 279
189 188 156 187 208 227 307 163 149 113 93 254 251 231 204 200 203 205 218 218 208 213 222 227 239 243 152 140 163 172 175 190 204 200 193 190 180 181 195 199 199 195 183 184 191 189 192 195 194 196 196 196 198 199 198 197 196 197 200 201 201 198 196 195 193 193 193 194 196 199 203 208 209 209 211 212 215 219 219 221 225 229 237 246 257 276
181 185 181 190 192 195 155 139 140 175 206 233 265 191 176 190 203 208 220 224 211 207 218 233 244 220 160 176 193 191 195 207 213 212 207 192 184 198 207 204 198 190 184 193 193 186 194 197 198 203 204 203 205 206 205 205 206 207 206 203 200 197 195 195 194 195 196 197 198 201 206 211 212 212 212 213 216 218 218 221 227 232 239 246 257 274
170 177 183 177 151 141 141 145 173 213 211 212 310 204 176 191 204 213 229 234 224 219 221 231 242 226 187 189 204 202 203 213 236 242 210 150 190 207 202 195 189 191 200 202 197 197 201 199 200 204 207 209 211 211 210 210 212 211 206 201 198 196 196 196 195 196 198 198 200 205 210 213 213 212 212 213 215 217 218 222 228 233 239 247 259 274
169 170 167 156 145 132 149 183 202 257 313 219 203 119 103 167 200 209 234 243 233 223 218 226 238 240 221 200 191 163 74 35 335 277 199 176 217 203 191 194 194 203 211 205 201 204 202 203 206 207 209 211 211 210 210 211 210 206 202 199 198 197 198 197 197 198 200 201 204 209 212 213 213 212 212 213 215 216 218 223 228 233 238 247 262 276
182 178 170 180 182 153 175 211 241 334 302 244 189 162 172 178 178 183 220 245 226 200 204 220 231 237 228 195 145 98 78 38 299 260 203 199 210 199 201 213 205 206 211 202 200 202 201 206 208 206 205 203 202 206 208 208 205 200 197 197 197 198 199 198 200 202 203 205 208 211 213 214 213 212 212 213 214 216 219 224 228 233 239 250 263 273
215 228 216 211 200 154 169 223 243 279 261 249 147 156 178 176 161 165 202 250 214 183 197 212 220 226 218 168 124 115 108 233 271 258 206 194 198 195 206 216 195 181 189 186 186 187 192 199 200 200 202 202 202 205 205 204 201 196 194 195 196 198 199 200 203 205 206 208 210 212 214 215 214 213 213 214 215 217 220 224 227 233 241 251 262 270
216 303 314 237 212 174 187 221 220 228 249 253 103 122 153 150 133 133 200 263 217 180 190 202 212 217 195 149 134 136 143 223 250 249 181 167 182 193 205 206 185 174 178 180 183 187 191 194 193 195 198 199 200 201 201 202 199 194 194 196 197 198 200 203 207 208 209 211 212 214 216 216 214 214 215 216 217 218 220 224 229 235 242 250 259 267
202 207 208 220 224 209 208 222 231 246 263 190 131 127 130 129 123 131 221 261 194 170 184 194 202 198 163 145 145 157 186 219 235 225 138 136 153 181 195 194 180 177 179 183 188 192 193 194 193 193 195 197 198 198 201 202 197 194 196 199 199 200 204 210 212 212 212 213 213 214 216 215 214 215 216 217 217 218 220 224 229 235 241 249 256 262
192 199 203 217 228 222 219 227 244 256 252 150 143 146 133 121 138 185 224 238 143 165 173 178 189 182 159 158 161 184 212 213 147 125 135 131 134 153 163 159 156 166 180 192 197 195 193 198 201 201 204 204 200 201 205 200 194 196 200 200 200 206 213 216 215 214 213 212 213 214 215 215 215 215 216 217 217 218 220 223 229 235 239 246 253 258
173 183 202 216 222 224 227 235 251 265 240 121 122 126 131 144 186 209 193 79 141 167 165 183 192 170 157 169 182 208 221 165 120 139 154 155 154 143 141 144 142 146 164 181 191 191 190 196 201 204 210 210 208 210 210 201 196 198 199 200 207 215 219 218 215 213 211 211 212 214 214 213 214 214 215 216 216 217 220 223 228 234 237 243 252 259
171 169 193 211 206 210 231 228 232 268 165 122 115 104 225 212 195 135 105 62 89 146 160 191 191 148 148 174 201 216 206 145 142 159 149 150 147 128 138 156 160 160 165 175 187 191 192 195 200 204 210 212 214 217 213 203 200 200 200 206 216 221 220 217 214 212 211 211 212 213 213 213 213 214 214 215 215 217 220 224 228 232 237 242 250 258
183 182 201 211 191 185 211 218 212 305 178 156 137 142 196 176 113 119 136 141 230 175 171 188 187 175 181 192 211 216 197 163 168 171 160 166 156 130 139 162 171 175 179 187 197 198 197 199 202 206 211 215 219 219 212 207 204 201 206 215 222 221 217 215 213 211 210 211 212 213 213 213 213 213 213 214 215 216 219 223 226 229 235 241 247 255
197 184 194 212 198 196 207 208 78 49 176 174 106 17 129 125 95 110 132 136 172 191 177 186 191 188 197 210 220 218 200 183 177 176 183 192 181 173 182 187 190 192 194 198 204 207 207 207 208 209 212 219 222 219 214 211 206 205 213 222 222 218 214 212 211 210 211 212 213 213 213 212 211 212 213 214 215 216 220 223 224 226 233 239 243 249
168 115 39 28 212 241 249 128 113 108 187 169 96 29 51 84 69 70 121 135 167 175 169 186 195 187 193 204 210 218 216 197 179 183 196 199 192 191 193 198 204 206 207 208 211 215 215 214 214 213 213 219 224 222 218 215 211 214 223 226 221 217 216 213 211 211 212 212 212 213 212 210 209 210 212 213 214 216 221 223 223 225 231 236 240 245
179 146 164 214 216 234 233 117 100 90 173 164 125 94 63 65 127 236 85 97 119 143 159 166 156 158 170 181 196 219 229 206 185 193 198 196 203 203 197 203 211 213 216 218 219 220 218 216 216 216 216 221 225 226 224 221 220 225 229 228 224 221 219 215 214 213 212 212 211 211 210 209 209 209 210 211 213 215 219 221 222 224 229 233 237 240
180 142 163 224 227 221 176 90 68 41 2 305 266 239 227 197 187 198 29 63 73 93 134 131 123 146 158 175 198 217 232 216 193 193 196 200 208 207 204 210 215 219 223 226 224 221 219 218 219 221 222 225 228 230 229 229 230 231 229 227 227 226 221 219 217 215 214 212 210 210 209 209 209 210 210 212 214 216 219 221 223 226 230 236 240 241
128 146 170 197 209 213 190 139 105 45 313 211 216 239 251 227 184 170 163 165 179 182 173 176 191 189 192 203 200 204 226 227 201 195 211 216 209 203 210 216 220 223 226 226 224 223 221 222 225 226 228 232 234 233 233 235 237 236 231 228 229 228 224 222 219 217 215 212 210 210 209 208 209 211 212 214 215 217 221 225 227 231 235 239 243 245
152 189 176 151 187 233 215 168 156 171 232 203 192 219 234 218 181 175 176 193 216 212 194 197 219 219 218 226 212 201 219 230 218 210 217 222 217 214 219 224 227 230 231 227 225 225 226 229 232 232 235 240 240 238 239 241 243 241 235 231 230 229 227 225 220 216 214 213 211 211 210 208 209 210 212 215 216 217 221 225 228 232 237 241 243 246
196 212 185 174 220 241 147 150 168 190 231 217 185 206 222 194 155 185 220 229 226 204 174 188 218 224 218 216 212 210 219 230 227 221 220 226 228 227 229 232 236 241 241 235 230 230 234 238 238 238 244 249 248 246 247 248 249 247 242 236 233 231 229 226 220 216 215 214 214 213 211 209 209 209 211 214 215 216 219 222 224 230 236 240 242 244